Orbital Elements at Epoch 2459200.5 (2020-Dec-17.0) TDB
Reference: JPL 12 (heliocentric ecliptic J2000)
Element | Value | Uncertainty (1-sigma) | Units |
e | .1122019774764336 | 4.9746e-08 | |
a | 2.192575396120066 | 7.8465e-09 | au |
q | 1.94656410090922 | 1.1154e-07 | au |
i | 4.249201149610284 | 6.067e-06 | deg |
node | 2.655393634372282 | 5.4377e-05 | deg |
peri | 52.36185187692465 | 6.1488e-05 | deg |
M | 96.20667568713733 | 2.603e-05 | deg |
tp | 2458883.592192343944 (2020-Feb-04.09219234) | 8.5426e-05 | TDB |
period | 1185.851292972525 3.25 | 6.3657e-06 1.743e-08 | d yr |
n | .3035793797530908 | 1.6296e-09 | deg/d |
Q | 2.438586691330912 | 8.7269e-09 | au |
|
| | Orbit Determination Parameters
Additional Information
|